This is the latest recevied weather packets stored in our database for station/object K5MGY. If no packets are shown the sender has not sent any weather packets the latest 10 day(s).
| Time | Temp. | Humidity | Pressure | Rain* | Wind** | Luminosity | Snow |
|---|---|---|---|---|---|---|---|
| 1777927719 | 27.78° C | 55% | 1032.4 hPa | 0 mm | - | 119 W/m² | - |
| 1777927417 | 27.78° C | 54% | 1032.4 hPa | 0 mm | - | 89 W/m² | - |
| 1777927116 | 27.78° C | 54% | 1032.6 hPa | 0 mm | - | 78 W/m² | - |
| 1777926813 | 27.78° C | 53% | 1032.6 hPa | 0 mm | - | 86 W/m² | - |
| 1777926508 | 27.78° C | 53% | 1032.5 hPa | 0 mm | - | 99 W/m² | - |
| 1777926206 | 27.78° C | 54% | 1033 hPa | 0 mm | - | 111 W/m² | - |
| 1777925902 | 27.78° C | 54% | 1033 hPa | 0 mm | - | 342 W/m² | - |
| 1777925600 | 27.78° C | 54% | 1033.1 hPa | 0 mm | - | 413 W/m² | - |
| 1777925297 | 27.78° C | 54% | 1033 hPa | 0 mm | - | 652 W/m² | - |
| 1777924993 | 27.22° C | 54% | 1033.3 hPa | 0 mm | - | 577 W/m² | - |
| 1777924689 | 27.22° C | 54% | 1033.4 hPa | 0 mm | - | 585 W/m² | - |
| 1777924385 | 27.22° C | 55% | 1033.6 hPa | 0 mm | - | 622 W/m² | - |
| 1777924082 | 27.22° C | 54% | 1033.7 hPa | 0 mm | - | 257 W/m² | - |
| 1777923779 | 27.22° C | 54% | 1033.7 hPa | 0 mm | - | 630 W/m² | - |
| 1777923475 | 27.22° C | 54% | 1033.8 hPa | 0 mm | - | 635 W/m² | - |
| 1777923172 | 27.22° C | 54% | 1034.1 hPa | 0 mm | - | 671 W/m² | - |
| 1777922871 | 27.22° C | 53% | 1034.1 hPa | 0 mm | - | 549 W/m² | - |
| 1777922568 | 27.78° C | 53% | 1034.3 hPa | 0 mm | - | 664 W/m² | - |
| 1777922267 | 27.78° C | 52% | 1034.1 hPa | 0 mm | - | 704 W/m² | - |
| 1777921963 | 27.22° C | 53% | 1034.2 hPa | 0 mm | - | 724 W/m² | - |
| 1777921659 | 27.22° C | 53% | 1034.2 hPa | 0 mm | - | 705 W/m² | - |
| 1777921356 | 27.22° C | 54% | 1034.3 hPa | 0 mm | - | 680 W/m² | - |
| 1777921052 | 27.22° C | 55% | 1034.6 hPa | 0 mm | - | 668 W/m² | - |
| 1777920749 | 27.22° C | 53% | 1034.5 hPa | 0 mm | - | 755 W/m² | - |
| 1777920445 | 26.67° C | 54% | 1034.6 hPa | 0 mm | - | 779 W/m² | - |
* Rain latest hour (hover to see other rain measurements)
** Current wind speed in m/s (hover to see current wind gust speed)